Regional Weather Roundup
Issued by NWS

Home | Current Version | Previous Version | Graphics & Text | Print | Product List | Glossary Off
Versions: 1 2 3 4 5 6 7 8 9 10 11 12 13 14 15 16 17 18 19 20 21 22 23 24 25 26 27

000
ASUS45 KSLC 251710
RWRUT

UTAH REGIONAL WEATHER ROUNDUP
NATIONAL WEATHER SERVICE SALT LAKE CITY UT
1100 AM MDT TUE APR 25 2017

UTZ001>011-023>025-251800-

NORTHERN UTAH

CITY           SKY/WX    TMP DP  RH WIND       PRES   REMARKS
BRIGHAM CITY   CLOUDY    42  37  80 E8        29.84R
DUGWAY         PTSUNNY   48  33  55 N21G26    29.85R
HILL AFB       LGT RAIN  40  38  89 N13G18    29.83R WCI  33
LOGAN          CLOUDY    45  38  76 E6        29.81R
OGDEN          CLOUDY    42  36  79 N16       29.83R
SALT LAKE CITY LGT RAIN  41  38  89 N6        29.84R
TOOELE VALLEY  CLOUDY    41  37  87 N16       29.85R
WENDOVER       SUNNY     48  26  42 NW24G36   29.89R
HEBER CITY     LGT SNOW  36  34  93 E3        29.79R
WEST JORDAN    CLOUDY    39  39 100 NW7       29.85R WCI  34

$$

UTZ011>015-024>027-251800-

CENTRAL/NORTHEAST UTAH

CITY           SKY/WX    TMP DP  RH WIND       PRES   REMARKS
PROVO AIRPORT  LGT RAIN  43  37  79 NE6       29.84R
MOAB/CANYONLAN MOSUNNY   58  26  29 W13G21    29.66S
DELTA          PTSUNNY   43  34  70 N22G35    29.86
PRICE          PTSUNNY   45  28  51 NW9       29.73R
RICHFIELD      PTSUNNY   41  37  87 E2        29.85
ROOSEVELT      PTSUNNY   46  30  53 CALM      29.74S
VERNAL         CLOUDY    46  30  53 W7        29.72R

$$

UTZ013>016-019>022-027-251800-

SOUTHERN UTAH

CITY           SKY/WX    TMP DP  RH WIND       PRES   REMARKS
BRYCE CANYON   MOSUNNY   44  20  38 NW23G31   29.80R
CEDAR CITY     PTSUNNY   49  27  42 N9        29.80S
MILFORD        PTSUNNY   49  32  52 N14       29.82R
ST GEORGE      CLOUDY    65  24  21 NW20      29.77F
HANKSVILLE     MOSUNNY   57  23  26 NW8G20    29.72S
KANAB          MOSUNNY   59  21  23 W12G20    29.80
BLANDING       PTSUNNY   51  24  34 W13       29.76F

$$

REGIONAL REPORTS     COLORADO/ARIZONA

CITY           SKY/WX    TMP DP  RH WIND       PRES   REMARKS
CRAIG, CO      CLOUDY    44  32  62 W5        29.70F
GRAND JUNCTION SUNNY     53  31  42 VRB3      29.66F
RIFLE, CO      CLOUDY    49  35  58 VRB3      29.67F
MONTROSE, CO   TSTM      43  32  65 SW9       29.70R
CORTEZ, CO     CLOUDY    47  35  63 SW7       29.72S
COLORADO CITY    N/A     59  27  29 NW14G21   29.82S
PAGE, AZ       SUNNY     62  24  23 NW15G23   29.71S
GRAND CANYON   SUNNY     53  14  21 NW15G31   29.81R
KINGMAN, AZ    MOSUNNY   67  19  16 N22G28    29.81R
FLAGSTAFF, AZ  MOSUNNY   54  19  25 NW10G22   29.83R

$$

REGIONAL REPORTS    NEVADA/IDAHO/WYOMING

CITY           SKY/WX    TMP DP  RH WIND       PRES   REMARKS
LAS VEGAS, NV  PTSUNNY   71  17  12 N18G32    29.79R
ELY, NY        CLOUDY    37  30  75 W8        29.93R WCI  31
ELKO, NV       MOSUNNY   42  26  53 NW15      29.99R
POCATELLO, ID  LGT RAIN  40  38  93 W17       29.85R WCI  31
BURLEY, ID     MOSUNNY   44  32  62 W23G36    29.85R
FORT BRIDGER,  CLOUDY    38  34  84 NW14      29.78R WCI  30
EVANSTON, WY   CLOUDY    36  30  79 W15       29.77R WCI  27
ROCK SPRINGS,  MOSUNNY   43  29  57 W22G29    29.69R
KEMMERER, WY     N/A     36  30  80 W20       29.75R WCI  25

$$




USA.gov is the U.S. government's official web portal to all federal, state and local government web resources and services.